Temp
14 15 16 17 17 14 14 13 12 13 12 14 13 14 14 16 17 18 18 16 16 16 16 16 15 15 15 13 12 12 10 10 9 7 6 6 5 3 2 1 0 0 0 -0
14 14 15 15 15 14 14 15 13 14 14 13 13 13 13 13 15 15 16 16 16 16 16 15 14 13 14 11 10 10 9 8 7 6 6 4 3 3 2 -0 -1 -1 -0 -1
12 11 12 10 12 14 15 15 14 13 13 13 11 10 11 13 14 14 15 15 16 15 15 14 13 12 11 10 9 9 8 6 6 5 4 3 2 1 -1 -1 0 -0 -1 -1
7 8 9 13 13 14 13 12 11 12 11 10 10 10 11 12 13 13 14 14 14 14 14 13 12 12 11 9 8 7 6 5 5 3 2 0 -0 -1 -0 -0 -1 -1 -1 -1
8 7 10 14 12 12 12 13 12 10 9 10 11 12 11 12 13 13 13 13 14 13 13 13 11 10 9 7 6 6 5 3 2 1 -0 -1 0 0 -0 -1 -1 -1 -1 -1
4 8 8 11 13 14 12 9 11 11 9 10 10 8 7 10 11 12 12 12 12 11 11 10 9 8 7 6 5 3 1 1 -0 -0 -0 0 1 -1 -1 -1 -1 -1 -1 -2
3 6 7 10 12 14 11 10 12 12 12 11 8 9 10 9 10 10 10 10 9 9 9 8 6 5 5 3 2 0 -0 -0 -0 0 -0 -1 -1 -1 -1 -1 -1 -1 -1 -2
4 5 10 12 12 11 10 11 12 12 12 11 10 9 9 8 8 7 7 6 6 6 4 3 3 4 3 2 1 1 0 -0 -0 -0 -1 -1 -1 -1 -1 -1 -2 -2 -2 -2
8 8 9 10 12 13 13 13 11 12 11 12 9 8 7 6 5 4 4 4 4 4 3 2 2 2 2 1 0 -0 -0 -1 -1 -1 -1 -1 -1 -1 -2 -2 -2 -2 -2 -2
8 9 7 8 10 12 12 12 11 11 11 11 9 6 5 4 3 3 3 3 3 2 2 1 1 0 -0 -1 -1 -1 -1 -1 -1 -2 -2 -2 -2 -2 -3 -3 -3 -3 -3 -3
6 7 7 7 9 10 10 10 10 9 9 9 9 4 4 2 2 2 2 1 1 1 -0 -1 -2 -2 -1 -1 -1 -1 -2 -2 -2 -2 -3 -3 -3 -3 -3 -4 -4 -4 -4 -4
6 8 8 7 7 8 9 8 8 9 7 5 5 4 3 1 1 0 -0 -1 -1 -1 -1 -2 -2 -2 -2 -2 -2 -2 -2 -2 -3 -3 -3 -4 -4 -3 -4 -4 -4 -4 -4 -5
9 9 9 7 6 6 8 7 7 7 6 4 2 2 1 0 -1 -1 -1 -1 -1 -1 -1 -2 -2 -2 -2 -2 -2 -2 -3 -3 -4 -4 -4 -5 -5 -5 -5 -4 -5 -5 -5 -5
10 9 3 5 4 5 6 5 4 3 2 2 1 0 -0 -1 -2 -1 -1 -1 -2 -2 -2 -2 -2 -2 -2 -3 -3 -3 -4 -4 -5 -5 -6 -6 -7 -7 -8 -9 -9 -7 -7 -8
6 8 7 5 4 3 3 2 2 1 -0 -1 -1 -1 -1 -1 -2 -2 -2 -2 -2 -2 -2 -2 -3 -3 -3 -4 -4 -5 -5 -6 -6 -7 -7 -8 -8 -9 -9 -9 -9 -10 -9 -8
5 6 4 4 2 1 1 1 1 -1 -1 -1 -1 -1 -1 -1 -2 -2 -2 -2 -2 -2 -2 -3 -4 -5 -5 -5 -5 -6 -6 -7 -7 -8 -9 -9 -10 -11 -11 -10 -11 -11 -10 -9
1 -1 0 -1 -0 -0 -0 -0 -0 -1 -1 -1 -1 -2 -2 -2 -2 -2 -2 -2 -3 -4 -4 -5 -6 -6 -6 -7 -7 -7 -8 -8 -9 -10 -11 -12 -12 -12 -12 -12 -11 -12 -11 -10
6 3 2 3 0 -0 -1 -1 -1 -1 -1 -2 -2 -3 -2 -2 -2 -3 -3 -4 -5 -6 -6 -6 -7 -7 -8 -8 -8 -9 -10 -10 -11 -12 -12 -12 -13 -13 -13 -13 -13 -12 -12 -11
4 3 1 1 0 -0 -1 -1 -2 -1 -2 -2 -2 -2 -2 -3 -3 -4 -5 -6 -6 -7 -7 -7 -8 -9 -9 -10 -10 -11 -11 -12 -12 -12 -13 -13 -13 -13 -14 -14 -14 -14 -14 -13
1 1 0 0 -0 -1 -2 -2 -2 -2 -3 -3 -3 -3 -3 -4 -4 -5 -6 -6 -7 -8 -9 -9 -10 -10 -11 -11 -11 -12 -12 -13 -13 -13 -14 -14 -14 -14 -14 -15 -15 -15 -15 -15
0 -0 -1 -1 -2 -2 -1 -2 -2 -2 -3 -4 -4 -4 -4 -5 -6 -7 -8 -8 -9 -9 -10 -10 -11 -11 -12 -12 -13 -13 -14 -14 -14 -14 -14 -15 -15 -15 -15 -16 -16 -16 -16 -16
-1 -1 -2 -3 -2 -3 -3 -3 -3 -3 -4 -5 -5 -5 -6 -7 -7 -8 -8 -9 -10 -11 -12 -13 -13 -13 -13 -13 -14 -14 -14 -15 -15 -15 -15 -16 -16 -16 -16 -17 -17 -17 -17 -17
-2 -2 -3 -3 -4 -4 -5 -4 -5 -5 -5 -6 -6 -7 -7 -8 -9 -9 -10 -11 -12 -13 -14 -15 -15 -15 -15 -15 -15 -15 -15 -16 -16 -16 -17 -17 -17 -18 -18 -18 -18 -18 -18 -18
-3 -4 -4 -4 -5 -4 -5 -6 -6 -7 -7 -7 -7 -8 -9 -9 -10 -10 -12 -13 -15 -15 -16 -16 -16 -16 -16 -16 -16 -16 -16 -16 -17 -17 -18 -18 -18 -18 -18 -18 -18 -18 -19 -19
-4 -5 -5 -5 -5 -6 -6 -7 -7 -8 -8 -9 -9 -9 -10 -10 -11 -12 -14 -15 -16 -16 -16 -16 -16 -17 -17 -16 -16 -16 -17 -17 -18 -18 -18 -18 -18 -18 -19 -19 -19 -19 -19 -19
-5 -6 -6 -7 -7 -7 -7 -8 -8 -9 -9 -9 -9 -10 -11 -12 -13 -14 -15 -16 -16 -17 -17 -17 -17 -17 -17 -17 -17 -17 -18 -18 -19 -19 -19 -19 -19 -19 -19 -19 -19 -19 -20 -20
-6 -7 -8 -8 -8 -9 -9 -9 -9 -9 -10 -10 -11 -12 -13 -14 -15 -16 -16 -17 -17 -17 -17 -17 -18 -18 -18 -18 -18 -18 -19 -19 -19 -19 -19 -19 -19 -19 -20 -20 -20 -20 -20 -20
Height
1466 1465 1466 1464 1467 1474 1476 1479 1487 1477 1480 1468 1465 1462 1458 1454 1456 1458 1459 1462 1464 1467 1469 1472 1474 1476 1478 1481 1483 1486 1489 1492 1495 1500 1502 1504 1504 1506 1507 1509 1508 1511 1511 1511
1469 1468 1466 1467 1467 1468 1471 1470 1473 1471 1471 1464 1462 1463 1460 1458 1457 1458 1459 1460 1461 1464 1467 1469 1471 1473 1475 1478 1481 1485 1489 1491 1495 1498 1500 1501 1502 1504 1504 1505 1507 1507 1506 1505
1479 1478 1474 1489 1471 1465 1463 1461 1463 1472 1464 1461 1464 1465 1464 1463 1462 1461 1462 1463 1463 1464 1466 1468 1470 1473 1475 1478 1482 1484 1486 1491 1494 1496 1498 1499 1501 1501 1503 1504 1503 1501 1500 1499
1489 1488 1500 1462 1458 1456 1460 1462 1460 1459 1459 1461 1464 1466 1466 1466 1465 1464 1464 1465 1466 1467 1468 1469 1471 1473 1475 1477 1480 1483 1486 1488 1490 1492 1495 1499 1499 1500 1500 1498 1497 1497 1497 1495
1487 1492 1476 1459 1460 1460 1458 1463 1459 1459 1461 1463 1464 1465 1467 1467 1467 1467 1468 1469 1470 1470 1470 1470 1471 1473 1475 1477 1480 1482 1485 1488 1490 1494 1494 1496 1498 1497 1495 1494 1494 1493 1491 1488
1491 1489 1490 1460 1449 1449 1451 1473 1458 1458 1459 1461 1464 1474 1471 1470 1470 1470 1470 1470 1471 1471 1471 1471 1472 1473 1475 1477 1481 1484 1487 1490 1492 1494 1495 1494 1493 1491 1491 1491 1489 1487 1485 1483
1489 1484 1470 1448 1446 1449 1467 1464 1450 1455 1458 1461 1465 1466 1467 1470 1471 1471 1471 1472 1472 1472 1472 1473 1474 1476 1478 1482 1485 1488 1490 1491 1492 1493 1492 1491 1490 1489 1488 1486 1484 1481 1479 1477
1481 1486 1469 1440 1446 1453 1446 1443 1447 1452 1455 1459 1462 1465 1467 1470 1471 1472 1473 1475 1476 1476 1477 1480 1484 1485 1486 1488 1491 1491 1491 1492 1490 1490 1489 1488 1487 1486 1484 1481 1479 1476 1473 1471
1450 1451 1439 1438 1438 1438 1438 1440 1449 1451 1455 1457 1461 1465 1468 1470 1473 1475 1477 1477 1479 1480 1482 1484 1486 1487 1488 1489 1490 1490 1490 1490 1489 1488 1487 1485 1483 1481 1479 1477 1473 1470 1467 1463
1441 1439 1438 1437 1436 1438 1440 1442 1447 1451 1453 1456 1459 1464 1468 1472 1474 1476 1478 1479 1482 1483 1484 1485 1487 1488 1489 1490 1490 1489 1489 1488 1486 1485 1483 1481 1479 1476 1473 1470 1467 1463 1460 1456
1441 1439 1438 1437 1437 1438 1441 1444 1447 1451 1453 1456 1459 1464 1468 1471 1475 1477 1479 1481 1483 1484 1485 1487 1488 1488 1489 1489 1488 1487 1486 1485 1483 1480 1478 1475 1472 1469 1466 1463 1461 1456 1452 1449
1428 1419 1422 1430 1435 1439 1440 1443 1447 1449 1453 1458 1461 1463 1468 1472 1476 1478 1480 1482 1484 1485 1487 1487 1488 1489 1488 1487 1486 1484 1482 1480 1477 1474 1471 1468 1464 1458 1458 1455 1451 1448 1444 1440
1406 1414 1419 1427 1434 1439 1440 1443 1447 1450 1454 1456 1463 1466 1469 1472 1476 1479 1481 1482 1484 1485 1486 1487 1487 1486 1485 1484 1482 1480 1478 1475 1472 1469 1465 1461 1457 1453 1446 1439 1439 1435 1432 1428
1406 1409 1425 1429 1433 1439 1441 1443 1447 1452 1456 1460 1463 1468 1471 1473 1477 1480 1481 1483 1484 1485 1485 1485 1484 1483 1482 1481 1479 1477 1474 1471 1467 1463 1459 1455 1450 1446 1442 1436 1428 1421 1419 1417
1409 1410 1415 1424 1434 1439 1443 1445 1449 1453 1458 1463 1467 1469 1473 1475 1478 1480 1482 1483 1484 1484 1483 1483 1482 1480 1479 1477 1474 1471 1468 1464 1461 1457 1453 1448 1444 1439 1434 1429 1424 1418 1411 1406
1411 1414 1420 1427 1434 1440 1444 1448 1449 1455 1460 1464 1467 1471 1474 1476 1478 1480 1481 1482 1482 1481 1481 1480 1479 1477 1474 1472 1469 1466 1463 1460 1455 1451 1447 1442 1439 1435 1430 1425 1420 1413 1406 1400
1410 1420 1425 1431 1436 1442 1447 1450 1452 1456 1460 1464 1468 1471 1474 1476 1478 1479 1480 1480 1480 1479 1478 1477 1476 1473 1470 1468 1465 1461 1458 1455 1451 1447 1443 1439 1435 1431 1427 1422 1416 1410 1403 1396
1415 1420 1426 1428 1433 1440 1448 1452 1455 1458 1462 1465 1469 1472 1474 1476 1477 1478 1478 1478 1477 1477 1476 1474 1473 1471 1467 1464 1461 1458 1454 1450 1447 1443 1439 1435 1431 1427 1423 1418 1413 1407 1402 1396
1419 1422 1428 1433 1438 1442 1448 1453 1457 1460 1463 1467 1470 1472 1474 1476 1476 1476 1476 1476 1476 1474 1473 1471 1469 1467 1464 1461 1457 1454 1450 1447 1443 1440 1436 1432 1428 1424 1419 1414 1409 1405 1400 1395
1422 1426 1431 1436 1442 1446 1450 1455 1458 1462 1465 1468 1470 1472 1473 1474 1475 1475 1475 1474 1473 1471 1469 1468 1466 1463 1460 1457 1454 1450 1446 1443 1439 1435 1432 1428 1424 1419 1415 1411 1406 1401 1397 1392
1425 1430 1435 1439 1444 1449 1453 1456 1460 1463 1466 1469 1470 1472 1472 1473 1473 1473 1472 1471 1470 1468 1466 1464 1462 1460 1456 1453 1449 1446 1443 1439 1435 1431 1427 1424 1420 1416 1411 1407 1402 1398 1393 1389
1428 1433 1438 1442 1447 1451 1456 1459 1463 1465 1466 1469 1470 1471 1472 1472 1472 1471 1470 1469 1466 1464 1463 1461 1458 1455 1452 1449 1445 1442 1439 1435 1431 1428 1424 1420 1416 1412 1408 1403 1399 1395 1390 1386
1433 1437 1441 1447 1450 1454 1458 1461 1463 1465 1466 1468 1469 1470 1470 1470 1469 1468 1467 1466 1464 1462 1459 1457 1454 1451 1448 1445 1441 1438 1435 1431 1428 1425 1421 1417 1413 1408 1404 1400 1396 1391 1387 1383
1437 1442 1445 1449 1453 1456 1458 1461 1463 1464 1466 1467 1468 1468 1467 1467 1466 1465 1463 1462 1460 1459 1456 1453 1450 1447 1444 1441 1438 1435 1431 1428 1424 1421 1418 1414 1410 1406 1401 1397 1392 1388 1384 1380
1442 1445 1448 1452 1455 1457 1459 1461 1463 1464 1465 1465 1466 1466 1465 1464 1463 1461 1460 1458 1457 1455 1453 1449 1446 1443 1440 1437 1434 1431 1427 1424 1421 1418 1414 1410 1406 1402 1398 1393 1389 1385 1380 1376
1445 1447 1450 1453 1456 1458 1459 1461 1463 1464 1464 1464 1463 1463 1462 1460 1459 1457 1456 1454 1452 1450 1448 1445 1442 1439 1436 1433 1430 1426 1423 1420 1418 1414 1410 1406 1402 1398 1394 1390 1386 1381 1377 1372
1447 1450 1452 1455 1457 1459 1460 1462 1463 1463 1462 1462 1461 1459 1458 1457 1455 1454 1452 1450 1448 1446 1443 1440 1437 1434 1431 1428 1425 1422 1419 1417 1414 1410 1407 1403 1399 1394 1390 1386 1382 1377 1373 1368
Wind_Speed
5 4 5 4 3 7 5 5 6 6 7 7 6 8 10 12 9 10 17 23 27 29 31 31 33 32 29 30 32 32 33 33 32 28 24 22 21 17 16 13 10 6 8 15
2 3 2 4 7 6 6 4 6 5 5 3 1 5 13 11 12 10 7 2 11 23 27 31 32 32 28 32 33 29 31 28 27 24 20 17 18 18 17 9 8 11 23 22
4 2 3 5 8 7 6 4 6 6 8 4 4 7 9 13 15 13 11 9 7 3 7 17 24 27 28 25 26 26 24 25 22 18 19 20 18 14 10 8 21 18 17 18
3 2 2 6 4 5 5 2 4 4 5 6 9 12 13 11 12 13 11 9 6 4 2 5 11 17 20 21 22 22 24 24 23 23 21 14 8 4 18 17 11 12 15 18
5 4 5 1 3 7 6 3 2 6 7 13 17 14 12 9 8 8 7 6 4 2 4 7 11 16 17 18 21 24 24 23 20 16 10 4 13 20 25 10 11 15 20 22
3 5 7 8 4 8 5 2 7 7 8 11 5 3 3 3 6 6 5 4 4 4 4 7 10 14 18 22 24 23 20 16 11 2 10 18 27 11 9 13 19 23 25 21
3 3 7 7 5 10 6 8 18 19 17 15 5 5 13 9 8 7 7 7 7 8 9 11 15 18 21 21 18 15 8 5 10 19 18 13 9 11 16 22 24 23 24 23
3 3 6 7 6 8 7 12 23 17 16 14 15 17 16 12 11 10 10 11 11 14 16 17 14 9 10 7 4 10 11 15 14 10 9 11 15 19 20 21 22 24 25 27
8 6 2 4 5 7 24 31 21 23 20 19 23 20 17 15 14 16 17 17 16 16 17 15 9 5 0 2 3 6 6 6 8 11 14 16 18 20 21 22 25 27 27 30
4 2 1 5 15 25 26 26 21 21 21 20 22 22 20 19 20 19 17 16 14 12 10 8 6 5 5 4 4 5 8 11 13 15 16 17 19 21 24 25 28 30 32 33
2 1 7 6 17 23 23 23 22 20 19 18 21 23 24 24 21 18 16 14 11 9 9 10 7 4 2 3 5 7 10 12 14 17 19 22 24 26 28 30 30 33 35 35
5 19 8 14 22 22 24 22 19 18 20 19 20 27 26 24 20 17 16 14 13 12 10 7 3 1 3 6 9 12 15 18 21 24 26 27 31 36 35 35 36 36 36 34
8 29 12 29 25 22 22 20 19 19 19 24 23 25 24 24 21 19 17 13 10 7 5 2 1 4 7 10 13 16 19 22 25 27 30 33 35 36 42 47 43 43 43 44
24 35 21 29 18 21 21 22 22 23 24 25 26 25 25 23 20 16 13 9 6 4 2 1 4 7 10 14 17 20 22 24 27 30 31 32 33 34 35 36 40 45 44 37
23 13 27 26 27 25 23 27 29 29 29 28 24 23 21 21 17 13 9 6 3 1 2 4 7 10 14 18 21 24 27 28 29 30 30 31 32 33 32 33 34 36 38 36
19 22 29 31 29 29 31 30 32 31 27 26 24 21 18 14 12 10 7 3 1 2 5 9 12 16 19 22 25 26 26 27 29 29 29 30 29 29 29 27 32 35 38 38
34 24 30 31 32 32 30 29 28 28 27 24 20 17 14 12 10 6 3 0 3 5 9 12 16 18 22 23 24 25 26 26 26 26 25 26 26 26 26 25 31 34 30 24
12 24 25 31 36 34 29 27 26 25 22 20 18 15 13 9 6 4 1 2 6 8 11 15 18 20 21 22 22 22 23 23 23 24 24 25 25 23 23 26 29 29 31 29
18 26 27 29 31 31 29 26 22 20 20 18 16 13 10 6 3 1 1 5 7 10 14 17 19 20 19 20 20 21 21 22 22 23 23 23 24 23 24 25 27 27 27 28
27 27 28 29 28 27 26 22 22 21 19 15 12 9 6 3 1 3 5 8 10 13 16 18 18 18 18 19 20 21 22 22 23 23 23 23 23 24 25 25 26 27 26 25
27 28 29 30 27 22 22 21 19 18 16 12 8 5 3 1 2 5 7 9 12 15 17 18 17 17 19 20 21 22 21 22 22 23 23 24 23 23 24 25 26 26 26 24
30 30 27 26 26 24 21 18 14 14 12 10 7 3 1 2 4 6 9 11 13 15 16 16 17 19 20 22 22 22 22 21 22 22 22 22 23 24 24 25 25 26 25 25
28 26 28 23 20 19 18 16 14 10 9 6 3 1 2 5 6 9 11 12 13 15 16 17 18 20 21 22 22 22 22 21 22 21 21 21 22 23 24 24 24 25 25 25
28 25 21 18 18 21 19 16 13 9 6 3 2 4 7 8 10 11 12 12 13 14 16 18 19 20 21 22 22 21 21 21 21 21 20 21 22 22 23 24 24 24 24 24
19 20 20 20 18 16 14 13 10 7 4 4 6 8 9 10 11 11 11 12 14 16 18 19 19 20 21 22 21 21 20 20 20 21 22 22 23 23 24 24 24 25 25 25
21 22 21 17 14 13 11 9 7 6 6 8 10 10 11 11 11 11 12 14 16 19 20 19 19 20 21 21 21 20 20 20 20 21 22 22 23 24 24 24 24 25 25 26
19 17 16 15 12 10 9 8 7 7 8 10 11 11 11 11 11 12 14 16 18 19 19 18 18 19 20 20 20 19 19 19 20 21 21 22 23 24 24 24 24 25 25 26
Wind_Direction
217 190 188 214 215 165 173 203 164 244 205 262 282 276 280 285 232 238 240 235 234 235 234 235 234 237 240 233 222 229 216 216 216 217 217 226 234 214 228 198 254 227 267 282
90 7 202 198 220 201 207 196 258 253 242 235 345 68 63 80 115 100 98 133 246 247 246 244 238 236 247 225 217 218 210 213 211 212 223 218 212 221 218 222 210 261 297 291
220 5 15 328 224 212 221 195 176 196 221 148 64 72 74 92 90 90 90 86 81 87 252 251 245 245 244 234 217 213 213 207 206 210 207 199 199 200 175 249 296 291 279 273
158 48 317 247 309 214 154 299 241 143 131 127 126 99 85 89 96 91 83 79 78 87 152 216 230 230 228 214 206 198 195 195 199 195 189 172 165 233 306 296 266 268 286 293
138 190 292 331 211 160 154 235 299 134 128 138 119 92 58 74 78 82 83 89 112 158 209 219 220 215 208 193 192 191 186 182 177 163 151 220 305 302 288 268 285 292 295 295
146 152 209 230 230 176 123 246 200 171 167 166 135 95 250 132 127 127 122 122 128 140 169 191 185 197 196 180 176 170 163 155 149 220 305 298 300 282 285 291 290 290 291 285
129 192 284 245 214 149 151 235 175 175 168 172 161 204 164 170 156 160 156 154 152 148 150 157 167 176 165 157 150 145 145 208 261 289 302 301 287 289 289 291 289 287 288 287
86 82 274 188 138 169 203 138 163 163 153 142 146 147 158 166 159 150 139 127 123 121 112 112 121 145 134 146 228 277 287 298 304 302 291 293 294 294 293 291 290 291 293 293
177 206 260 238 238 198 156 154 158 156 158 158 157 160 162 154 141 129 127 126 126 125 124 122 120 109 145 241 280 309 315 319 317 311 307 304 303 301 298 297 297 298 297 296
116 216 37 131 152 159 160 156 156 162 162 164 162 165 157 147 141 138 134 129 126 125 121 111 91 68 70 52 7 333 321 321 322 321 317 311 307 306 305 304 303 299 297 297
81 75 95 134 155 154 152 152 155 157 164 168 168 158 155 148 145 138 133 127 125 118 110 100 97 91 53 331 318 316 315 313 309 305 303 301 298 298 297 295 298 300 298 297
203 189 155 173 163 160 154 152 155 163 154 156 165 157 156 144 139 136 131 127 125 122 124 113 90 24 330 322 318 316 314 311 311 308 306 305 304 302 298 297 295 293 291 290
172 168 173 160 160 162 158 153 153 157 158 153 150 150 148 140 137 135 130 129 127 119 108 97 338 314 319 316 314 314 314 312 310 310 309 309 309 308 307 304 302 298 298 298
160 151 128 155 161 164 159 149 148 144 142 143 143 145 143 140 138 136 131 124 122 125 125 323 309 312 315 313 314 315 316 316 316 317 318 317 316 315 314 315 314 311 309 304
149 166 168 158 152 151 152 147 142 138 138 137 141 141 143 140 138 133 129 133 136 166 282 303 311 317 318 321 324 325 325 324 324 323 323 322 322 323 322 321 322 319 316 311
135 139 146 151 149 149 151 149 144 140 144 142 143 143 143 142 136 133 134 135 243 308 331 325 325 328 328 328 328 327 327 328 327 327 326 326 326 332 335 337 336 325 316 314
128 122 144 143 151 152 153 153 149 147 145 147 148 149 147 143 139 139 138 44 331 333 328 327 329 331 330 330 330 330 330 329 330 332 333 334 334 332 330 326 328 344 344 336
170 161 162 160 159 158 154 150 149 149 150 151 149 149 150 151 154 146 135 327 319 317 317 325 329 331 331 329 329 331 333 334 336 337 336 336 336 331 328 326 328 336 333 339
153 151 155 159 160 156 152 151 153 153 150 150 152 154 154 152 143 147 302 304 304 313 322 329 331 330 330 331 334 334 333 333 333 333 333 334 333 332 330 328 329 332 333 335
149 154 157 154 155 156 152 155 153 150 149 153 158 157 162 159 243 299 307 309 320 328 327 328 328 329 331 330 332 332 331 329 327 328 329 329 329 330 329 329 330 331 333 332
155 155 153 151 150 152 154 152 156 156 154 159 165 168 176 234 300 314 316 318 322 321 322 324 327 328 331 332 332 331 329 327 326 327 328 327 327 326 327 328 331 331 332 332
154 153 148 144 144 142 145 149 161 166 162 161 164 179 247 294 304 309 315 319 319 321 322 324 327 330 332 332 331 332 332 331 329 330 328 328 329 330 330 330 329 329 330 330
148 143 141 143 150 156 161 165 166 167 165 165 175 218 302 309 312 316 315 315 318 325 324 323 324 327 330 331 330 330 331 330 330 331 330 329 330 331 331 331 330 329 328 328
142 145 153 157 164 165 163 164 168 169 180 196 270 310 319 313 307 308 308 314 321 322 322 322 321 320 324 326 325 327 327 328 328 328 327 327 328 329 330 330 330 329 328 327
160 153 155 162 166 170 173 172 176 186 213 253 281 296 301 301 299 301 302 310 316 318 318 319 317 317 320 321 322 324 325 327 327 325 326 327 329 329 329 330 329 328 327 327
161 164 169 172 177 181 182 186 205 227 251 272 284 294 301 301 298 300 303 308 314 317 320 317 314 315 318 319 321 322 324 325 324 323 325 327 328 329 329 330 329 328 327 327
167 169 166 165 169 178 191 206 228 252 266 274 283 295 298 297 296 298 303 308 314 318 320 317 313 312 317 319 320 321 321 320 321 322 324 326 327 328 329 330 330 329 329 329